Date String (YYYY-MM-DD hh:mm:ss) UTC,Instrument flags,Ambient pressure (hPa),Sample flow (lpm),Bypass flow (lpm),Sample temperature (°C),Ambient temperature (°C),ASC tube jacket temperature (°C),LED temperature (°C),Box temperature (°C),Sample RH (%),Span deviation,Mass concentration (μg/m³),Mass concentration (μg/m³),Mass concentration (μg/m³)
DateTimeUTC,F1_M11,P_M11,Q1_M11,Q2_M11,T1_M11,T2_M11,T3_M11,T4_M11,T5_M11,U1_M11,ZSPAN_M11,X0_M11,X2_M11,X1_M11
2022-02-21 20:00:00,,0812.9,4.99,0.00,22.8,22.1,00.0,32.0,24.6,11.2,0000.9,0016.00,0005.94,0005.06
2022-02-21 20:01:00,,0812.9,4.99,0.00,22.8,22.1,00.0,31.9,24.6,11.3,0000.8,0016.33,0005.93,0005.06
2022-02-21 20:02:00,,0812.9,5.01,0.00,22.8,22.1,00.0,31.9,24.5,11.3,0000.6,0016.26,0005.92,0005.06
2022-02-21 20:03:00,,0812.9,4.99,0.00,22.8,22.0,00.0,31.9,24.5,11.2,0000.2,0016.52,0005.92,0005.04
2022-02-21 20:04:00,,0812.9,4.99,0.00,22.8,22.0,00.0,31.9,24.5,11.2,0000.3,0016.05,0005.91,0005.05
2022-02-21 20:05:00,,0813.0,5.01,0.00,22.8,22.0,00.0,31.9,24.5,11.2,0000.0,0015.51,0005.91,0005.05
2022-02-21 20:06:00,,0812.9,5.01,0.00,22.8,22.0,00.0,31.9,24.5,11.1,-000.1,0015.26,0005.91,0005.05
2022-02-21 20:07:00,,0812.9,5.00,0.00,22.7,22.0,00.0,31.9,24.4,11.1,0000.4,0014.87,0005.93,0005.05
2022-02-21 20:08:00,,0812.9,5.00,0.00,22.7,21.9,00.0,31.8,24.4,11.1,0000.0,0015.37,0005.95,0005.05
2022-02-21 20:09:00,,0812.8,4.99,0.00,22.7,21.9,00.0,31.8,24.4,11.2,-000.1,0015.36,0005.93,0005.06
2022-02-21 20:10:00,,0812.8,5.00,0.00,22.7,21.9,00.0,31.8,24.4,11.3,-000.4,0013.77,0005.92,0005.06
2022-02-21 20:11:00,,0812.9,5.02,0.00,22.7,21.9,00.0,31.8,24.4,11.3,-000.3,0012.37,0005.93,0005.05
2022-02-21 20:12:00,,0813.0,4.99,0.00,22.6,21.9,00.0,31.8,24.4,11.3,-000.5,0011.82,0005.97,0005.06
2022-02-21 20:13:00,,0812.9,5.00,0.00,22.6,21.9,00.0,31.8,24.3,11.2,-000.9,0012.03,0006.01,0005.08
2022-02-21 20:14:00,,0812.9,5.01,0.00,22.6,21.9,00.0,31.8,24.3,11.2,-000.6,0011.98,0006.02,0005.10
2022-02-21 20:15:00,,0812.9,4.99,0.00,22.6,21.9,00.0,31.7,24.3,11.4,-000.6,0011.94,0006.04,0005.11
2022-02-21 20:16:00,,0812.9,5.00,0.00,22.6,21.9,00.0,31.7,24.3,11.4,-000.5,0011.87,0006.03,0005.12
2022-02-21 20:17:00,,0813.0,5.00,0.00,22.6,21.9,00.0,31.7,24.3,11.3,0000.1,0012.09,0006.05,0005.14
2022-02-21 20:18:00,,0813.1,4.99,0.00,22.6,21.9,00.0,31.7,24.3,11.3,0000.2,0011.81,0006.14,0005.17
2022-02-21 20:19:00,,0813.1,5.00,0.00,22.6,21.9,00.0,31.7,24.3,11.3,0000.5,0011.70,0006.15,0005.21
2022-02-21 20:20:00,,0813.1,5.00,0.00,22.6,21.9,00.0,31.7,24.3,11.4,0000.4,0011.73,0006.12,0005.23
2022-02-21 20:21:00,,0813.0,5.00,0.00,22.6,21.9,00.0,31.7,24.3,11.5,0000.4,0011.86,0006.15,0005.24
2022-02-21 20:22:00,,0813.0,5.00,0.00,22.5,21.9,00.0,31.7,24.3,11.6,0000.2,0012.07,0006.18,0005.26
2022-02-21 20:23:00,,0813.0,4.99,0.00,22.5,21.9,00.0,31.6,24.3,11.5,-000.0,0012.32,0006.20,0005.25
2022-02-21 20:24:00,,0813.1,5.01,0.00,22.5,21.8,00.0,31.6,24.2,11.4,0000.2,0012.29,0006.23,0005.26
2022-02-21 20:25:00,,0813.1,5.01,0.00,22.5,21.8,00.0,31.6,24.2,11.5,0000.5,0012.00,0006.20,0005.26
2022-02-21 20:26:00,,0813.2,5.00,0.00,22.5,21.8,00.0,31.6,24.2,11.5,0001.0,0012.23,0006.18,0005.26
2022-02-21 20:27:00,,0813.3,4.99,0.00,22.5,21.8,00.0,31.6,24.2,11.5,0000.8,0012.90,0006.15,0005.25
2022-02-21 20:28:00,,0813.3,5.02,0.00,22.5,21.8,00.0,31.6,24.2,11.5,0000.5,0012.92,0006.17,0005.26
2022-02-21 20:29:00,,0813.2,5.00,0.00,22.5,21.8,00.0,31.6,24.2,11.4,0000.4,0012.92,0006.13,0005.26
2022-02-21 20:30:00,,0813.2,5.00,0.00,22.5,21.8,00.0,31.6,24.2,11.3,0000.4,0012.66,0006.13,0005.25
2022-02-21 20:31:00,,0813.2,4.99,0.00,22.4,21.8,00.0,31.6,24.2,11.3,0000.3,0013.18,0006.20,0005.25
2022-02-21 20:32:00,,0813.2,5.01,0.00,22.4,21.8,00.0,31.5,24.2,11.4,0000.7,0014.19,0006.24,0005.27
2022-02-21 20:33:00,,0813.3,5.01,0.00,22.4,21.7,00.0,31.5,24.1,11.5,0001.0,0014.15,0006.22,0005.29
2022-02-21 20:34:00,,0813.3,4.99,0.00,22.4,21.7,00.0,31.5,24.1,11.6,0001.5,0014.39,0006.21,0005.31
2022-02-21 20:35:00,,0813.3,4.99,0.00,22.4,21.7,00.0,31.5,24.1,11.5,0001.5,0014.26,0006.19,0005.33
2022-02-21 20:36:00,,0813.4,5.01,0.00,22.4,21.7,00.0,31.5,24.1,11.4,0001.3,0014.68,0006.24,0005.35
2022-02-21 20:37:00,,0813.4,4.99,0.00,22.4,21.7,00.0,31.5,24.1,11.4,0000.9,0014.65,0006.32,0005.38
2022-02-21 20:38:00,,0813.4,5.00,0.00,22.4,21.7,00.0,31.5,24.1,11.4,0001.3,0014.03,0006.38,0005.40
2022-02-21 20:39:00,,0813.4,5.00,0.00,22.4,21.7,00.0,31.5,24.1,11.5,0001.2,0014.18,0006.39,0005.42
2022-02-21 20:40:00,,0813.4,4.99,0.00,22.4,21.7,00.0,31.5,24.1,11.6,0000.8,0013.75,0006.38,0005.43
2022-02-21 20:41:00,,0813.5,5.01,0.00,22.4,21.7,00.0,31.5,24.1,11.6,0000.4,0013.99,0006.40,0005.44
2022-02-21 20:42:00,,0813.5,5.01,0.00,22.3,21.7,00.0,31.4,24.1,11.5,0000.4,0013.52,0006.40,0005.47
2022-02-21 20:43:00,,0813.5,4.99,0.00,22.3,21.6,00.0,31.4,24.1,11.4,0000.3,0012.19,0006.38,0005.49
2022-02-21 20:44:00,,0813.5,4.99,0.00,22.3,21.6,00.0,31.4,24.0,11.4,0000.4,0012.35,0006.41,0005.50
2022-02-21 20:45:00,,0813.5,4.99,0.00,22.3,21.6,00.0,31.4,24.0,11.4,-000.2,0012.59,0006.41,0005.51
2022-02-21 20:46:00,,0813.6,5.00,0.00,22.3,21.6,00.0,31.4,24.0,11.3,-000.3,0012.63,0006.38,0005.51
2022-02-21 20:47:00,,0813.6,5.00,0.00,22.2,21.6,00.0,31.4,23.9,11.4,-000.3,0012.50,0006.36,0005.51
2022-02-21 20:48:00,,0814.1,4.99,0.00,22.2,21.5,00.0,31.4,23.9,11.4,-000.4,0012.20,0006.34,0005.52
2022-02-21 20:49:00,,0814.1,4.99,0.00,22.2,21.5,00.0,31.4,23.9,11.5,-000.7,0012.50,0006.35,0005.54
2022-02-21 20:50:00,,0814.1,5.01,0.00,22.2,21.5,00.0,31.4,23.9,11.6,-000.5,0012.63,0006.34,0005.54
2022-02-21 20:51:00,,0813.9,5.00,0.00,22.2,21.5,00.0,31.3,23.9,11.5,-000.2,0012.73,0006.33,0005.54
2022-02-21 20:52:00,,0813.6,5.00,0.00,22.2,21.5,00.0,31.3,23.8,11.5,0000.2,0012.82,0006.31,0005.53
2022-02-21 20:53:00,,0813.5,5.01,0.00,22.2,21.4,00.0,31.3,23.8,11.4,0000.5,0012.73,0006.29,0005.51
2022-02-21 20:54:00,,0813.8,5.00,0.00,22.3,21.9,00.0,31.4,24.0,11.3,0000.5,0012.82,0006.29,0005.49
2022-02-21 20:55:00,,0813.8,5.00,0.00,22.4,22.6,00.0,31.4,24.3,11.2,0000.5,0013.13,0006.29,0005.50
2022-02-21 20:56:00,,0813.9,4.98,0.00,22.5,23.0,00.0,31.4,24.5,11.1,0001.0,0012.46,0006.30,0005.51
2022-02-21 20:57:00,,0813.6,5.01,0.00,22.6,22.8,00.0,31.4,24.6,11.0,0001.4,0012.83,0006.36,0005.52
2022-02-21 20:58:00,,0813.7,5.01,0.00,22.6,22.7,00.0,31.5,24.5,11.0,0001.7,0012.86,0006.38,0005.52
2022-02-21 20:59:00,,0813.8,5.00,0.00,22.6,22.5,00.0,31.5,24.4,11.0,0001.8,0013.20,0006.38,0005.52
